This demonstration page uses our WeatherBlox Daily Observations layout. Learn more.

Left ArrowRight Arrow

31.31129, -92.44514

Hourly Observations for August 31, 2018

Temp ( °F °C ) Dew Point ( °F °C ) Humidity (%) Winds ( mph kmh ) Pressure ( in mb ) Visibility ( mi km ) Precip ( " mm )
12:53 am 00:53 Clear 75 23.9 71 21.7 88 88 Calm 29.98 1015 10 16 0.00 0.00
1:53 am 01:53 Clear 73 22.8 71 21.7 94 94 S 3 6 29.96 1015 10 16 0.00 0.00
2:53 am 02:53 Clear 73 22.8 71 21.7 94 94 Calm 29.96 1015 10 16 0.00 0.00
3:53 am 03:53 Clear 73 22.8 71 21.7 94 94 SE 6 9 29.97 1015 10 16 0.00 0.00
4:53 am 04:53 Clear 72 22.2 71 21.7 97 97 Calm 29.98 1015 10 16 0.00 0.00
5:53 am 05:53 Mostly Cloudy 74 23.3 72 22.2 94 94 Calm 29.99 1016 9 14 0.00 0.00
6:53 am 06:53 Mostly Cloudy 74 23.3 72 22.2 94 94 E 3 6 30.00 1016 8 13 0.00 0.00
7:53 am 07:53 Sunny 77 25 73 22.8 88 88 Calm 30.01 1016 9 14 0.00 0.00
8:53 am 08:53 Sunny 80 26.7 73 22.8 79 79 VRB 3 6 30.01 1016 10 16 0.00 0.00
9:53 am 09:53 Mostly Sunny 84 28.9 73 22.8 70 70 E 6 9 30.01 1016 10 16 0.00 0.00
10:53 am 10:53 Mostly Cloudy 87 30.6 71 21.7 59 59 E 6 9 30.01 1016 10 16 0.00 0.03
11:53 am 11:53 Mostly Sunny 88 31.1 69 20.6 54 54 NE 5 7 30.00 1016 10 16 0.00 0.00
12:53 pm 12:53 Mostly Cloudy 91 32.8 68 20 47 47 NE 8 13 29.98 1015 10 16 0.00 0.00
1:53 pm 13:53 Partly Cloudy 90 32.2 67 19.4 47 47 VRB 6 9 29.97 1015 10 16 0.00 0.00
2:53 pm 14:53 Cloudy with Light Rain 82 27.8 72 22.2 72 72 SSE 6 9 29.96 1014 7 11 0.00 0.03
3:53 pm 15:53 Partly Cloudy 94 34.4 69 20.6 44 44 E 9 15 29.92 1013 10 16 0.00 0.03
4:53 pm 16:53 Sunny 90 32.2 72 22.2 56 56 Calm 29.91 1013 10 16 0.03 0.76
5:53 pm 17:53 Mostly Cloudy 83 28.3 73 22.8 72 72 E 7 11 29.91 1013 10 16 0.04 1.02
6:53 pm 18:53 Mostly Sunny 84 28.9 73 22.8 70 70 ESE 9 15 29.91 1013 10 16 0.00 0.00
7:53 pm 19:53 Mostly Clear 82 27.8 70 21.1 67 67 ESE 9 15 29.93 1014 10 16 0.00 0.00
8:53 pm 20:53 Clear 80 26.7 72 22.2 76 76 SE 9 15 29.94 1014 10 16 0.00 0.00
9:53 pm 21:53 Clear 79 26.1 72 22.2 79 79 ESE 9 15 29.95 1014 10 16 0.00 0.00
10:53 pm 22:53 Clear 78 25.6 72 22.2 82 82 ESE 9 15 29.95 1014 10 16 0.00 0.00
11:53 pm 23:53 Clear 77 25 73 22.8 88 88 ESE 8 13 29.95 1014 10 16 0.00 0.00

Powered by AerisWeather